Location: Caixon
(43.4106°N, 0.0273°E)
Time: 22:48:56
(UTC+00:00)

Cosmos 2278 - Pass Details

Date: 16 October 2021
Orbit: 838 x 854 km, 71.1° (Epoch: 07 December)

Event Time Altitude Azimuth Distance (km) Brightness Sun altitude
Rises 04:33:33 0° 334° (NNW) 3,429 6.7 -19.2°
Reaches altitude 10° 04:36:00 10° 333° (NNW) 2,491 5.9 -18.7°
Maximum altitude 04:41:44 79° 248° (WSW) 873 3.6 -17.7°
Drops below altitude 10° 04:47:26 10° 162° (SSE) 2,476 6.3 -16.7°
Sets 04:49:52 0° 161° (SSE) 3,408 7.1 -16.2°
